When you browse on this site, cookies collect data to enhance your experience and personalize the content and advertising you see.
Visit our Privacy Policy to learn more. By continuing to use the site, you agree to this use of cookies and data.
  • In United Kingdom
  • List of Countries
  • For 7 days
  • Water Temperature
  • Satellite Maps
  • Weather Map
  • Weather Widgets
  • user-avatar
    Login

    Hourly Weather Port Said

    Today, 21 May, Tuesday

    Time Temperature Precipitation Wind Pressure Humidity
    00:00 +25°C° 0 mm 3 mps 761 mmHg 63%
    01:00 +24°C° 0 mm 3 mps 761 mmHg 64%
    02:00 +24°C° 0 mm 3 mps 761 mmHg 65%
    03:00 +24°C° 0 mm 3 mps 761 mmHg 66%
    04:00 +24°C° 0 mm 3 mps 761 mmHg 66%
    05:00 +22°C° 0 mm 3 mps 761 mmHg 67%
    06:00 +25°C° 0 mm 3 mps 761 mmHg 56%
    07:00 +27°C° 0 mm 3 mps 761 mmHg 46%
    08:00 +29°C° 0 mm 4 mps 761 mmHg 36%
    09:00 +32°C° 0 mm 4 mps 761 mmHg 32%
    10:00 +34°C° 0 mm 4 mps 761 mmHg 27%
    11:00 +36°C° 0 mm 5 mps 761 mmHg 22%
    12:00 +36°C° 0 mm 5 mps 761 mmHg 22%
    13:00 +36°C° 0 mm 5 mps 761 mmHg 22%
    14:00 +38°C° 0 mm 6 mps 760 mmHg 21%
    15:00 +36°C° 0 mm 6 mps 760 mmHg 24%
    16:00 +34°C° 0 mm 6 mps 760 mmHg 26%
    17:00 +33°C° 0 mm 6 mps 760 mmHg 28%
    18:00 +32°C° 0 mm 6 mps 760 mmHg 34%
    19:00 +30°C° 0 mm 6 mps 761 mmHg 39%
    20:00 +28°C° 0 mm 6 mps 761 mmHg 44%
    21:00 +28°C° 0 mm 6 mps 761 mmHg 45%
    22:00 +27°C° 0 mm 5 mps 761 mmHg 46%
    23:00 +27°C° 0 mm 5 mps 762 mmHg 47%

    Tomorrow, 22 May, Wednesday

    Time Temperature Precipitation Wind Pressure Humidity
    00:00 +27°C° 0 mm 5 mps 761 mmHg 48%
    01:00 +26°C° 0 mm 4 mps 761 mmHg 50%
    02:00 +26°C° 0 mm 4 mps 761 mmHg 51%
    03:00 +26°C° 0 mm 4 mps 761 mmHg 49%
    04:00 +26°C° 0 mm 4 mps 761 mmHg 48%
    05:00 +26°C° 0 mm 4 mps 761 mmHg 47%
    06:00 +28°C° 0 mm 4 mps 761 mmHg 39%
    07:00 +30°C° 0 mm 4 mps 761 mmHg 30%
    08:00 +33°C° 0 mm 5 mps 761 mmHg 22%
    09:00 +36°C° 0 mm 5 mps 761 mmHg 18%
    10:00 +39°C° 0 mm 5 mps 761 mmHg 14%
    11:00 +41°C° 0 mm 5 mps 761 mmHg 10%
    12:00 +42°C° 0 mm 6 mps 761 mmHg 10%
    13:00 +44°C° 0 mm 6 mps 760 mmHg 10%
    14:00 +44°C° 0 mm 7 mps 760 mmHg 9%
    15:00 +41°C° 0 mm 7 mps 760 mmHg 12%
    16:00 +39°C° 0 mm 7 mps 759 mmHg 15%
    17:00 +36°C° 0 mm 7 mps 759 mmHg 18%
    18:00 +35°C° 0 mm 7 mps 759 mmHg 21%
    19:00 +34°C° 0 mm 7 mps 760 mmHg 24%
    20:00 +33°C° 0 mm 6 mps 760 mmHg 27%
    21:00 +32°C° 0 mm 6 mps 760 mmHg 29%
    22:00 +30°C° 0 mm 6 mps 760 mmHg 32%
    23:00 +30°C° 0 mm 6 mps 760 mmHg 35%

    Day after tomorrow, 23 May, Thursday

    Time Temperature Precipitation Wind Pressure Humidity
    00:00 +30°C° 0 mm 6 mps 760 mmHg 33%
    01:00 +30°C° 0 mm 6 mps 760 mmHg 32%
    02:00 +29°C° 0 mm 6 mps 759 mmHg 31%
    03:00 +29°C° 0 mm 5 mps 759 mmHg 30%
    04:00 +29°C° 0 mm 5 mps 759 mmHg 30%
    05:00 +29°C° 0 mm 5 mps 759 mmHg 30%
    06:00 +33°C° 0 mm 6 mps 759 mmHg 24%
    07:00 +35°C° 0 mm 6 mps 759 mmHg 18%
    08:00 +39°C° 0 mm 6 mps 759 mmHg 12%
    09:00 +41°C° 0 mm 6 mps 758 mmHg 10%
    10:00 +45°C° 0 mm 6 mps 758 mmHg 9%
    11:00 +47°C° 0 mm 6 mps 758 mmHg 7%
    12:00 +48°C° 0 mm 6 mps 757 mmHg 7%
    13:00 +48°C° 0 mm 6 mps 757 mmHg 6%
    14:00 +49°C° 0 mm 6 mps 756 mmHg 6%
    15:00 +47°C° 0 mm 7 mps 756 mmHg 8%
    16:00 +46°C° 0 mm 8 mps 755 mmHg 9%
    17:00 +45°C° 0 mm 8 mps 755 mmHg 11%
    18:00 +43°C° 0 mm 9 mps 755 mmHg 13%
    19:00 +40°C° 0 mm 9 mps 755 mmHg 16%
    20:00 +38°C° 0 mm 9 mps 755 mmHg 19%
    21:00 +38°C° 0 mm 8 mps 756 mmHg 20%
    22:00 +37°C° 0 mm 8 mps 756 mmHg 21%
    23:00 +36°C° 0 mm 7 mps 756 mmHg 22%

    24 May, Friday

    Time Temperature Precipitation Wind Pressure Humidity
    00:00 +36°C° 0 mm 6 mps 755 mmHg 19%
    01:00 +36°C° 0 mm 6 mps 755 mmHg 16%
    02:00 +36°C° 0 mm 5 mps 755 mmHg 13%
    03:00 +36°C° 0 mm 5 mps 755 mmHg 12%
    04:00 +35°C° 0 mm 5 mps 754 mmHg 12%
    05:00 +35°C° 0 mm 4 mps 754 mmHg 11%
    06:00 +37°C° 0 mm 5 mps 754 mmHg 10%
    07:00 +41°C° 0 mm 5 mps 754 mmHg 9%
    08:00 +43°C° 0 mm 5 mps 755 mmHg 7%
    09:00 +46°C° 0 mm 5 mps 755 mmHg 6%
    10:00 +49°C° 0 mm 5 mps 755 mmHg 6%
    11:00 +52°C° 0 mm 5 mps 755 mmHg 5%
    12:00 +52°C° 0 mm 5 mps 754 mmHg 5%
    13:00 +52°C° 0 mm 6 mps 754 mmHg 5%
    14:00 +52°C° 0 mm 6 mps 753 mmHg 5%
    15:00 +47°C° 0 mm 7 mps 754 mmHg 14%
    16:00 +41°C° 0 mm 8 mps 754 mmHg 23%
    17:00 +37°C° 0 mm 9 mps 754 mmHg 32%
    18:00 +34°C° 0 mm 8 mps 754 mmHg 36%
    19:00 +33°C° 0 mm 7 mps 755 mmHg 41%
    20:00 +30°C° 0 mm 7 mps 756 mmHg 45%
    21:00 +29°C° 0 mm 6 mps 756 mmHg 51%
    22:00 +28°C° 0 mm 6 mps 757 mmHg 57%
    23:00 +27°C° 0 mm 6 mps 757 mmHg 63%

    25 May, Saturday

    Time Temperature Precipitation Wind Pressure Humidity
    00:00 +27°C° 0 mm 6 mps 757 mmHg 65%
    01:00 +26°C° 0 mm 5 mps 757 mmHg 67%
    02:00 +26°C° 0 mm 5 mps 757 mmHg 69%
    03:00 +25°C° 0 mm 5 mps 757 mmHg 70%
    04:00 +25°C° 0 mm 5 mps 758 mmHg 71%
    05:00 +23°C° 0 mm 4 mps 758 mmHg 72%
    06:00 +25°C° 0 mm 4 mps 759 mmHg 66%
    07:00 +26°C° 0 mm 4 mps 759 mmHg 61%
    08:00 +27°C° 0 mm 4 mps 760 mmHg 56%
    09:00 +29°C° 0 mm 4 mps 760 mmHg 50%
    10:00 +30°C° 0 mm 4 mps 760 mmHg 44%
    11:00 +32°C° 0 mm 4 mps 760 mmHg 39%
    12:00 +32°C° 0 mm 5 mps 759 mmHg 38%
    13:00 +33°C° 0 mm 6 mps 759 mmHg 38%
    14:00 +33°C° 0 mm 6 mps 758 mmHg 38%
    15:00 +32°C° 0 mm 6 mps 758 mmHg 42%
    16:00 +29°C° 0 mm 6 mps 758 mmHg 46%
    17:00 +28°C° 0 mm 7 mps 758 mmHg 49%
    18:00 +27°C° 0 mm 6 mps 759 mmHg 55%
    19:00 +26°C° 0 mm 6 mps 759 mmHg 61%
    20:00 +25°C° 0 mm 5 mps 759 mmHg 67%
    21:00 +25°C° 0 mm 5 mps 759 mmHg 67%
    22:00 +25°C° 0 mm 4 mps 760 mmHg 68%
    23:00 +24°C° 0 mm 3 mps 760 mmHg 69%

    26 May, Sunday

    Time Temperature Precipitation Wind Pressure Humidity
    00:00 +24°C° 0 mm 3 mps 760 mmHg 70%
    01:00 +24°C° 0 mm 3 mps 759 mmHg 71%
    02:00 +24°C° 0 mm 3 mps 759 mmHg 72%
    03:00 +24°C° 0 mm 3 mps 759 mmHg 73%
    04:00 +22°C° 0 mm 3 mps 759 mmHg 74%
    05:00 +22°C° 0 mm 4 mps 759 mmHg 75%
    06:00 +23°C° 0 mm 4 mps 759 mmHg 69%
    07:00 +25°C° 0 mm 3 mps 759 mmHg 62%
    08:00 +26°C° 0 mm 3 mps 759 mmHg 56%
    09:00 +27°C° 0 mm 4 mps 759 mmHg 51%
    10:00 +29°C° 0 mm 4 mps 759 mmHg 45%
    11:00 +30°C° 0 mm 4 mps 759 mmHg 40%
    12:00 +30°C° 0 mm 5 mps 758 mmHg 39%
    13:00 +30°C° 0 mm 5 mps 758 mmHg 39%
    14:00 +32°C° 0 mm 6 mps 758 mmHg 39%
    15:00 +30°C° 0 mm 6 mps 757 mmHg 41%
    16:00 +29°C° 0 mm 6 mps 757 mmHg 43%
    17:00 +28°C° 0 mm 6 mps 757 mmHg 44%
    18:00 +27°C° 0 mm 6 mps 758 mmHg 50%
    19:00 +26°C° 0 mm 5 mps 758 mmHg 55%
    20:00 +25°C° 0 mm 4 mps 758 mmHg 61%
    21:00 +25°C° 0 mm 4 mps 758 mmHg 62%
    22:00 +25°C° 0 mm 4 mps 759 mmHg 64%
    23:00 +25°C° 0 mm 3 mps 759 mmHg 65%
    Show more